Date String (YYYY-MM-DD hh:mm:ss) UTC,Instrument flags,absolute air pressure of the measurement (hPa),sample flow rate (lpm),inlet stack bypass flow (lpm),air temperature of the measurement (°C),ambient temperature measured by the external sensor (°C),aerosol sample conditioner tube jacket temperature (°C),OPC LED temperature (°C),internal box temperature (°C),relative humidity of the measurement (%),span deviation,mass concentration of particles derived from Lorenz-Mie calculation of OPC scattering (μg/m³),mass concentration of particles derived from Lorenz-Mie calculation of OPC scattering (μg/m³),mass concentration of particles derived from Lorenz-Mie calculation of OPC scattering (μg/m³)
DateTimeUTC,F1_M11,P_M11,Q1_M11,Q2_M11,T1_M11,T2_M11,T3_M11,T4_M11,T5_M11,U1_M11,ZSPAN_M11,X2_M11,X0_M11,X1_M11
2024-06-12 18:00:00,SystemResetWarning,0829.8,4.99,000.00,029.1,028.5,000.0,037.2,030.9,016.6,0000.0,0004.80,0010.64,0004.20
2024-06-12 18:01:00,SystemResetWarning,0829.7,4.98,000.00,029.0,027.2,000.0,037.3,030.2,015.9,0000.0,0004.82,0011.07,0004.20
2024-06-12 18:02:00,SystemResetWarning,0829.6,5.02,000.00,028.7,025.9,000.0,037.3,029.6,016.4,0000.0,0004.84,0011.28,0004.20
2024-06-12 18:03:00,SystemResetWarning,0829.6,5.00,000.00,028.6,026.3,000.0,037.3,029.8,016.7,0000.0,0004.81,0011.21,0004.20
2024-06-12 18:04:00,SystemResetWarning,0829.7,5.00,000.00,028.6,026.8,000.0,037.2,030.0,017.3,0000.0,0004.77,0011.05,0004.20
2024-06-12 18:05:00,SystemResetWarning,0829.7,5.00,000.00,028.7,027.2,000.0,037.1,030.2,016.6,0000.0,0004.72,0011.72,0004.21
2024-06-12 18:06:00,SystemResetWarning,0829.7,5.00,000.00,028.8,027.5,000.0,037.1,030.4,017.0,0000.0,0004.75,0011.92,0004.22
2024-06-12 18:07:00,SystemResetWarning,0829.7,4.99,000.00,028.8,027.9,000.0,037.1,030.6,016.7,0000.0,0004.79,0012.19,0004.22
2024-06-12 18:08:00,SystemResetWarning,0829.7,4.99,000.00,028.9,028.2,000.0,037.1,030.7,015.4,0000.0,0004.81,0012.98,0004.23
2024-06-12 18:09:00,SystemResetWarning,0829.7,5.00,000.00,029.0,028.4,000.0,037.1,030.8,015.7,0000.0,0004.87,0013.81,0004.26
2024-06-12 18:10:00,SystemResetWarning,0829.7,5.00,000.00,029.1,028.2,000.0,037.2,030.7,016.2,0000.0,0004.91,0014.06,0004.26
2024-06-12 18:11:00,SystemResetWarning,0829.7,5.00,000.00,028.8,026.3,000.0,037.3,029.8,016.4,0000.0,0004.90,0013.93,0004.27
2024-06-12 18:12:00,SystemResetWarning,0829.7,5.02,000.00,028.5,025.8,000.0,037.2,029.5,015.9,0000.0,0004.91,0014.32,0004.27
2024-06-12 18:13:00,SystemResetWarning,0829.7,5.00,000.00,028.5,026.4,000.0,037.2,029.8,016.0,0000.0,0004.91,0014.38,0004.30
2024-06-12 18:14:00,SystemResetWarning,0829.7,4.98,000.00,028.5,026.8,000.0,037.1,030.0,016.2,0000.0,0004.93,0014.47,0004.33
2024-06-12 18:15:00,SystemResetWarning,0829.7,5.00,000.00,028.6,027.2,000.0,037.0,030.2,016.3,0000.0,0004.99,0014.64,0004.35
2024-06-12 18:16:00,SystemResetWarning,0829.6,5.00,000.00,028.7,027.6,000.0,037.0,030.4,015.8,0000.0,0005.06,0014.78,0004.36
2024-06-12 18:17:00,SystemResetWarning,0829.6,5.01,000.00,028.8,027.9,000.0,037.0,030.5,015.7,0000.0,0005.11,0014.61,0004.38
2024-06-12 18:18:00,SystemResetWarning,0829.7,5.00,000.00,028.9,028.2,000.0,037.0,030.7,015.7,0000.0,0005.11,0014.01,0004.41
2024-06-12 18:19:00,SystemResetWarning,0829.7,5.00,000.00,028.9,028.4,000.0,037.0,030.8,015.8,0000.0,0005.10,0012.44,0004.43
2024-06-12 18:20:00,SystemResetWarning,0829.7,4.99,000.00,029.0,028.6,000.0,037.1,030.9,016.0,0000.0,0005.10,0011.70,0004.43
2024-06-12 18:21:00,SystemResetWarning,0829.7,4.99,000.00,029.0,027.6,000.0,037.2,030.4,016.0,0000.0,0005.07,0011.42,0004.44
2024-06-12 18:22:00,SystemResetWarning,0829.5,5.01,000.00,028.7,025.8,000.0,037.2,029.5,016.0,0000.0,0005.08,0011.77,0004.46
2024-06-12 18:23:00,SystemResetWarning,0829.6,5.01,000.00,028.5,026.0,000.0,037.2,029.5,017.0,0000.0,0005.05,0010.74,0004.47
2024-06-12 18:24:00,SystemResetWarning,0829.6,5.00,000.00,028.5,026.5,000.0,037.1,029.8,017.8,0000.0,0005.05,0010.29,0004.47
2024-06-12 18:25:00,SystemResetWarning,0829.7,5.00,000.00,028.5,026.9,000.0,037.0,030.0,016.5,0000.0,0005.05,0010.17,0004.45
2024-06-12 18:26:00,SystemResetWarning,0829.7,5.00,000.00,028.6,027.3,000.0,037.0,030.2,016.9,0000.0,0005.05,0010.18,0004.45
2024-06-12 18:27:00,SystemResetWarning,0829.7,5.00,000.00,028.7,027.6,000.0,036.9,030.4,016.5,0000.0,0005.02,0009.99,0004.44
2024-06-12 18:28:00,SystemResetWarning,0829.7,5.00,000.00,028.8,027.9,000.0,037.0,030.5,016.3,0000.0,0004.95,0009.72,0004.42
2024-06-12 18:29:00,SystemResetWarning,0829.7,5.00,000.00,028.9,028.2,000.0,037.0,030.7,016.4,0000.0,0004.93,0009.66,0004.40
2024-06-12 18:30:00,SystemResetWarning,0829.7,5.00,000.00,028.9,028.4,000.0,037.0,030.8,016.5,0000.0,0004.94,0009.56,0004.39
2024-06-12 18:31:00,SystemResetWarning,0829.7,4.99,000.00,029.0,028.5,000.0,037.1,030.8,016.3,0000.0,0004.91,0009.56,0004.38
2024-06-12 18:32:00,SystemResetWarning,0829.7,4.99,000.00,028.9,026.9,000.0,037.1,030.0,016.2,0000.0,0004.92,0010.12,0004.38
2024-06-12 18:33:00,SystemResetWarning,0829.6,5.02,000.00,028.5,025.6,000.0,037.2,029.4,016.8,0000.0,0004.88,0009.97,0004.36
2024-06-12 18:34:00,SystemResetWarning,0829.7,5.01,000.00,028.4,026.2,000.0,037.1,029.6,016.9,0000.0,0004.92,0010.10,0004.36
2024-06-12 18:35:00,SystemResetWarning,0829.7,5.00,000.00,028.5,026.6,000.0,037.0,029.8,016.8,0000.0,0004.91,0011.32,0004.36
2024-06-12 18:36:00,SystemResetWarning,0829.7,5.00,000.00,028.5,027.0,000.0,037.0,030.1,016.6,0000.0,0004.92,0011.49,0004.36
2024-06-12 18:37:00,SystemResetWarning,0829.7,5.00,000.00,028.6,027.4,000.0,036.9,030.3,016.0,0000.0,0004.92,0012.03,0004.37
2024-06-12 18:38:00,SystemResetWarning,0829.7,4.99,000.00,028.7,027.8,000.0,036.9,030.4,016.1,0000.0,0004.91,0011.89,0004.38
2024-06-12 18:39:00,SystemResetWarning,0829.7,5.00,000.00,028.8,028.0,000.0,036.9,030.6,015.9,0000.0,0004.94,0011.99,0004.39
2024-06-12 18:40:00,SystemResetWarning,0829.7,5.00,000.00,028.9,028.3,000.0,037.0,030.7,016.0,0000.0,0004.96,0012.30,0004.40
2024-06-12 18:41:00,SystemResetWarning,0829.7,5.00,000.00,029.0,028.5,000.0,037.0,030.8,015.8,0000.0,0004.95,0012.58,0004.41
2024-06-12 18:42:00,SystemResetWarning,0829.7,5.00,000.00,029.0,028.1,000.0,037.0,030.6,015.8,0000.0,0004.94,0013.38,0004.43
2024-06-12 18:43:00,SystemResetWarning,0829.7,4.98,000.00,028.7,026.2,000.0,037.1,029.7,015.8,0000.0,0004.93,0012.93,0004.43
2024-06-12 18:44:00,SystemResetWarning,0829.7,5.02,000.00,028.4,025.6,000.0,037.1,029.4,016.8,0000.0,0004.98,0012.45,0004.45
2024-06-12 18:45:00,SystemResetWarning,0829.7,5.00,000.00,028.4,026.1,000.0,037.0,029.6,017.1,0000.0,0004.98,0012.37,0004.45
2024-06-12 18:46:00,SystemResetWarning,0829.7,5.00,000.00,028.4,026.5,000.0,037.0,029.8,017.1,0000.0,0004.96,0011.85,0004.45
2024-06-12 18:47:00,SystemResetWarning,0829.7,5.01,000.00,028.5,027.0,000.0,036.9,030.0,017.5,0000.0,0004.95,0011.45,0004.45
2024-06-12 18:48:00,SystemResetWarning,0829.7,5.00,000.00,028.6,027.4,000.0,036.9,030.2,018.2,0000.0,0004.94,0011.15,0004.46
2024-06-12 18:49:00,SystemResetWarning,0829.7,4.99,000.00,028.6,027.7,000.0,036.9,030.4,018.8,0000.0,0004.99,0011.41,0004.47
2024-06-12 18:50:00,SystemResetWarning,0829.7,5.00,000.00,028.7,028.0,000.0,036.9,030.5,018.0,0000.0,0004.99,0011.13,0004.46
2024-06-12 18:51:00,SystemResetWarning,0829.7,5.00,000.00,028.8,028.3,000.0,036.9,030.7,017.6,0000.0,0005.00,0010.71,0004.46
2024-06-12 18:52:00,SystemResetWarning,0829.7,5.00,000.00,028.9,028.5,000.0,036.9,030.8,017.6,0000.0,0004.98,0010.54,0004.46
2024-06-12 18:53:00,SystemResetWarning,0829.7,5.00,000.00,029.0,028.7,000.0,037.0,030.9,017.1,0000.0,0004.98,0009.67,0004.45
2024-06-12 18:54:00,SystemResetWarning,0829.7,4.99,000.00,029.0,027.8,000.0,037.1,030.4,017.1,0000.0,0004.98,0009.63,0004.45
2024-06-12 18:55:00,SystemResetWarning,0829.6,5.01,000.00,028.7,025.9,000.0,037.1,029.5,017.3,0000.0,0004.96,0010.53,0004.44
2024-06-12 18:56:00,SystemResetWarning,0829.6,5.01,000.00,028.4,025.9,000.0,037.1,029.5,017.7,0000.0,0005.00,0010.72,0004.45
2024-06-12 18:57:00,SystemResetWarning,0829.6,4.99,000.00,028.4,026.4,000.0,037.0,029.7,017.5,0000.0,0005.03,0010.46,0004.45
2024-06-12 18:58:00,SystemResetWarning,0829.7,5.00,000.00,028.5,026.8,000.0,036.9,029.9,016.9,0000.0,0005.03,0010.38,0004.45
2024-06-12 18:59:00,SystemResetWarning,0829.7,5.00,000.00,028.6,027.2,000.0,036.9,030.2,018.0,0000.0,0005.03,0010.11,0004.45
